"2009-10-05 00:00:00",1299166,9.1,37.59,7.814,1.348,8.29,101.6378,3.478,4.741,96.2,0,109.8,13.49,4.24,359.6
"2009-10-05 00:00:30",1299167,8.72,38.08,5.527,1.52,8.47,101.6418,3.489,4.708,96.2,0,109.8,13.49,4.25,0.1
"2009-10-05 00:01:00",1299168,8.39,37.91,5.938,1.476,8.41,101.6412,3.487,4.694,96.2,0,109.8,13.49,4.25,359.9
"2009-10-05 00:01:30",1299169,9.85,42.4,4.592,1.194,9.18,101.6392,3.482,4.774,96.3,0,109.8,13.49,4.25,4.4
"2009-10-05 00:02:00",1299170,8.82,40.68,3.974,1.065,9.36,101.637,3.476,4.767,96.3,0,109.8,13.49,4.24,2.7
"2009-10-05 00:02:30",1299171,9.53,37.1,5.953,0.631,9.17,101.6313,3.462,4.787,96.3,0,109.8,13.49,4.23,359.1
"2009-10-05 00:03:00",1299172,9.47,38.13,5.275,0.932,8.88,101.6288,3.455,4.761,96.3,0,109.8,13.49,4.22,0.1
"2009-10-05 00:03:30",1299173,9.59,38.11,5.545,0.775,8.65,101.6288,3.455,4.745,96.3,0,109.8,13.49,4.22,0.1
"2009-10-05 00:04:00",1299174,9.1,40.13,4.277,0.928,9.04,101.6288,3.455,4.736,96.3,0,109.8,13.49,4.22,2.1
"2009-10-05 00:04:30",1299175,7.481,32.3,4.188,1.337,5.645,101.6288,3.455,4.567,96.2,0,109.8,13.49,4.22,354.3
"2009-10-05 00:05:00",1299176,8.28,35.6,6.728,1.236,6.673,101.6243,3.444,4.655,96.3,0,109.8,13.5,4.21,357.6
"2009-10-05 00:05:30",1299177,9.41,40.39,6.143,1.281,8.49,101.6064,3.398,4.698,96.3,0,109.8,13.5,4.16,2.4
"2009-10-05 00:06:00",1299178,9.2,38.8,3.986,0.875,9.45,101.5965,3.373,4.709,96.3,0,109.8,13.5,4.14,0.8
"2009-10-05 00:06:30",1299179,9.42,39.18,4.859,1.017,9.44,101.5948,3.369,4.699,96.3,0,109.8,13.5,4.13,1.2
"2009-10-05 00:07:00",1299180,9.6,36.56,4.707,1.124,9.41,101.5948,3.369,4.684,96.3,0,109.8,13.5,4.13,358.6
"2009-10-05 00:07:30",1299181,9.29,41.85,4.17,1.249,9.11,101.5948,3.369,4.686,96.4,0,109.8,13.5,4.13,3.8
"2009-10-05 00:08:00",1299182,9.54,43.06,5.179,1.045,9.22,101.5948,3.369,4.686,96.3,0,109.8,13.5,4.13,5.1
"2009-10-05 00:08:30",1299183,8.55,38.07,5.762,0.815,9.11,101.5948,3.369,4.679,96.4,0,109.8,13.5,4.13,0.1
"2009-10-05 00:09:00",1299184,10.69,47.07,4.598,0.747,8.98,101.5948,3.369,4.664,96.4,0,109.8,13.5,4.13,9.1
"2009-10-05 00:09:30",1299185,9.48,36.91,7.583,1.009,8.78,101.5948,3.369,4.647,96.4,0,109.8,13.5,4.13,358.9
"2009-10-05 00:10:00",1299186,8.79,39.19,3.91,1.022,8.77,101.5948,3.369,4.684,96.4,0,109.8,13.5,4.13,1.2
"2009-10-05 00:10:30",1299187,8.96,39.01,4.744,0.739,8.81,101.5948,3.369,4.67,96.4,0,109.8,13.5,4.13,1.0
"2009-10-05 00:11:00",1299188,9.08,39.01,4.243,0.791,8.64,101.5948,3.369,4.639,96.4,0,109.8,13.5,4.13,1.0
"2009-10-05 00:11:30",1299189,8.96,36.64,4.955,0.98,8.72,101.5948,3.369,4.655,96.4,0,109.8,13.5,4.13,358.6
"2009-10-05 00:12:00",1299190,8.46,35.05,4.873,1.375,7.815,101.5948,3.369,4.638,96.4,0,109.8,13.5,4.13,357.0
"2009-10-05 00:12:30",1299191,8.52,36.37,6.957,1.49,7.623,101.5909,3.359,4.576,96.4,0,109.8,13.5,4.12,358.4
"2009-10-05 00:13:00",1299192,7.374,32.72,6.552,1.511,6.164,101.5852,3.344,4.389,96.2,0,109.8,13.5,4.11,354.7
"2009-10-05 00:13:30",1299193,8.16,38.76,4.807,1.122,8.51,101.5793,3.329,4.665,96.5,0,109.8,13.5,4.09,0.8
"2009-10-05 00:14:00",1299194,8.15,38.9,5.911,0.918,8.85,101.5742,3.316,4.609,96.5,0,109.8,13.5,4.08,0.9
"2009-10-05 00:14:30",1299195,9.33,41.38,4.274,1.033,9.37,101.5691,3.303,4.612,96.5,0,109.8,13.5,4.07,3.4
"2009-10-05 00:15:00",1299196,8.91,37.64,4.354,1.165,9.16,101.5663,3.296,4.612,96.5,0,109.8,13.5,4.06,359.6
"2009-10-05 00:15:30",1299197,8.42,38.81,7.59,1.758,7.926,101.5666,3.297,4.516,96.4,0,109.8,13.5,4.06,0.8
"2009-10-05 00:16:00",1299198,7.042,35.21,7.166,1.387,7.207,101.575,3.318,4.533,96.4,0,109.8,13.5,4.08,357.2
"2009-10-05 00:16:30",1299199,8.49,36.78,5.996,1.089,8.64,101.5762,3.321,4.576,96.5,0,109.8,13.5,4.08,358.8
"2009-10-05 00:17:00",1299200,8.57,33.1,5.679,1.525,8.24,101.5759,3.32,4.566,96.5,0,109.8,13.5,4.08,355.1
"2009-10-05 00:17:30",1299201,7.595,38.14,7.286,1.171,8.11,101.5796,3.33,4.542,96.5,0,109.8,13.5,4.09,0.1
"2009-10-05 00:18:00",1299202,8.72,38.91,4.882,0.842,9.16,101.5835,3.34,4.59,96.6,0,109.8,13.5,4.10,0.9
"2009-10-05 00:18:30",1299203,7.687,33,6.198,1.213,7.801,101.5866,3.348,4.533,96.5,0,109.8,13.5,4.11,355.0
"2009-10-05 00:19:00",1299204,7.436,33.59,7.403,1.729,7.505,101.5869,3.349,4.574,96.5,0,109.8,13.5,4.11,355.6
"2009-10-05 00:19:30",1299205,8.32,40.33,7.187,1.258,9.16,101.5827,3.338,4.646,96.6,0,109.8,13.5,4.10,2.3
"2009-10-05 00:20:00",1299206,8.31,35.68,6.695,1.122,8.45,101.5773,3.324,4.568,96.6,0,109.8,13.5,4.09,357.7
"2009-10-05 00:20:30",1299207,8.42,33.93,6.038,1.108,7.861,101.575,3.318,4.504,96.5,0,109.8,13.5,4.08,355.9
"2009-10-05 00:21:00",1299208,8.01,37.17,6.052,1.078,8.32,101.5728,3.313,4.54,96.5,0,109.8,13.5,4.08,359.2
"2009-10-05 00:21:30",1299209,7.373,35.01,6.889,0.979,7.496,101.5654,3.294,4.567,96.6,0,109.8,13.5,4.06,357.0
"2009-10-05 00:22:00",1299210,9.24,39.91,6.206,1.534,8.33,101.5609,3.282,4.539,96.6,0,109.8,13.5,4.05,1.9
"2009-10-05 00:22:30",1299211,8.12,42.31,3.953,1.09,9.25,101.5609,3.282,4.623,96.7,0,109.8,13.51,4.05,4.3
"2009-10-05 00:23:00",1299212,8.11,39.25,5.668,0.857,8.91,101.5609,3.282,4.612,96.7,0,109.8,13.51,4.05,1.2
"2009-10-05 00:23:30",1299213,8.25,38.09,6.093,1.245,7.479,101.5609,3.282,4.497,96.6,0,109.8,13.51,4.05,0.1
"2009-10-05 00:24:00",1299214,7.011,33.45,9.02,1.565,6.788,101.5609,3.282,4.564,96.6,0,109.8,13.51,4.05,355.5
"2009-10-05 00:24:30",1299215,8.16,35.25,6.119,0.771,7.508,101.5609,3.282,4.414,96.5,0,109.8,13.51,4.05,357.2
"2009-10-05 00:25:00",1299216,7.839,32.59,6.419,1.204,8.25,101.5609,3.282,4.539,96.6,0,109.8,13.51,4.05,354.6
"2009-10-05 00:25:30",1299217,7.783,38.95,4.923,0.635,9.45,101.5609,3.282,4.602,96.7,0,109.8,13.51,4.05,1.0
"2009-10-05 00:26:00",1299218,8.18,38.31,4.407,0.92,9.14,101.5609,3.282,4.605,96.7,0,109.8,13.51,4.05,0.3
"2009-10-05 00:26:30",1299219,7.919,37.96,2.849,0.896,8.69,101.5609,3.282,4.593,96.7,0,109.8,13.51,4.05,360.0
"2009-10-05 00:27:00",1299220,7.754,39.67,6.001,1.165,7.264,101.5609,3.282,4.474,96.6,0,109.8,13.51,4.05,1.7
"2009-10-05 00:27:30",1299221,6.402,33.1,6.427,1.026,5.877,101.5609,3.282,4.451,96.6,0,109.8,13.51,4.05,355.1
"2009-10-05 00:28:00",1299222,8.56,42.48,5.699,1.398,7.786,101.5609,3.282,4.507,96.7,0,109.8,13.51,4.05,4.5
"2009-10-05 00:28:30",1299223,8.37,36.39,6.376,1.043,9.73,101.5609,3.282,4.569,96.7,0,109.8,13.51,4.05,358.4
"2009-10-05 00:29:00",1299224,8.31,37.56,3.152,0.942,9.23,101.5609,3.282,4.59,96.8,0,109.8,13.52,4.05,359.6
"2009-10-05 00:29:30",1299225,8.59,40.86,6.651,1.088,9.1,101.5609,3.282,4.603,96.8,0,109.8,13.51,4.05,2.9
"2009-10-05 00:30:00",1299226,8.21,42.97,6.068,0.839,8.84,101.5612,3.283,4.583,96.8,0,109.8,13.51,4.05,5.0
"2009-10-05 00:30:30",1299227,6.479,34.26,7.601,1.299,5.954,101.5609,3.282,4.37,96.6,0,109.8,13.51,4.05,356.3
"2009-10-05 00:31:00",1299228,6.454,38.64,5.627,1.08,6.654,101.5609,3.282,4.488,96.7,0,109.8,13.51,4.05,0.6
"2009-10-05 00:31:30",1299229,7.111,39.65,4.703,0.985,6.627,101.5612,3.283,4.406,96.6,0,109.8,13.51,4.05,1.7
"2009-10-05 00:32:00",1299230,7.708,40.09,4.651,0.909,9.33,101.5632,3.288,4.624,96.8,0,109.8,13.51,4.05,2.1
"2009-10-05 00:32:30",1299231,8.09,36.2,4.388,0.987,9.51,101.5705,3.307,4.611,96.8,0,109.8,13.51,4.07,358.2
"2009-10-05 00:33:00",1299232,7.472,41.92,2.426,0.834,9.22,101.5742,3.316,4.603,96.8,0,109.7,13.5,4.08,3.9
"2009-10-05 00:33:30",1299233,7.883,37.93,8.43,1.572,7.736,101.5804,3.332,4.577,96.8,0,109.8,13.5,4.10,359.9
"2009-10-05 00:34:00",1299234,8.66,44.83,7.008,1.226,6.975,101.5844,3.342,4.494,96.7,0,109.8,13.5,4.11,6.8
"2009-10-05 00:34:30",1299235,8.2,39.23,7.236,1.408,7.435,101.5914,3.36,4.513,96.8,0,109.8,13.5,4.12,1.2
"2009-10-05 00:35:00",1299236,8.13,42.36,6.176,1.209,8.86,101.5948,3.369,4.578,96.8,0,109.8,13.5,4.13,4.4
"2009-10-05 00:35:30",1299237,7.36,39.68,5.047,0.944,9.47,101.5951,3.37,4.628,96.9,0,109.7,13.5,4.13,1.7
"2009-10-05 00:36:00",1299238,8.9,41.5,6.424,1.315,7.738,101.5954,3.37,4.547,96.8,0,109.7,13.5,4.13,3.5
"2009-10-05 00:36:30",1299239,8.03,38.37,6.372,0.978,8.03,101.5951,3.37,4.603,96.9,0,109.8,13.51,4.13,0.4
"2009-10-05 00:37:00",1299240,8.2,42.68,5.234,1.207,8.82,101.5957,3.371,4.651,96.9,0,109.7,13.51,4.13,4.7
"2009-10-05 00:37:30",1299241,7.328,43.27,6.091,1.226,8.26,101.5954,3.37,4.655,96.9,0,109.8,13.51,4.13,5.3
"2009-10-05 00:38:00",1299242,7.843,46.95,7.906,1.583,7.836,101.5951,3.37,4.565,96.8,0,109.8,13.52,4.13,9.0
"2009-10-05 00:38:30",1299243,7.333,40.03,7.039,1.44,7.584,101.5951,3.37,4.618,96.9,0,109.8,13.52,4.13,2.0
"2009-10-05 00:39:00",1299244,6.618,38.21,7.77,1.702,7.32,101.5951,3.37,4.547,96.9,0,109.8,13.52,4.13,0.2
"2009-10-05 00:39:30",1299245,6.599,37.62,5.133,0.981,7.687,101.5948,3.369,4.612,96.9,0,109.8,13.52,4.13,359.6
"2009-10-05 00:40:00",1299246,8.74,46.85,4.872,1.144,8.53,101.5957,3.371,4.659,97,0,109.8,13.52,4.13,8.8
"2009-10-05 00:40:30",1299247,7.505,42.1,5.676,1.139,8.34,101.5994,3.38,4.648,97,0,109.8,13.52,4.14,4.1
"2009-10-05 00:41:00",1299248,7.952,42.82,6.938,1.338,8.31,101.6118,3.412,4.661,97,0,109.8,13.52,4.18,4.8
"2009-10-05 00:41:30",1299249,6.511,35.48,6.951,1.319,7.232,101.6161,3.423,4.571,96.9,0,109.8,13.52,4.19,357.5
"2009-10-05 00:42:00",1299250,7.188,40.02,8.76,1.437,7.364,101.6209,3.435,4.655,97,0,109.8,13.52,4.20,2.0
"2009-10-05 00:42:30",1299251,8.29,41.6,7.713,1.397,8.37,101.6254,3.447,4.666,97,0,109.8,13.52,4.21,3.6
"2009-10-05 00:43:00",1299252,8.56,39.54,5.918,0.639,9.65,101.6274,3.452,4.723,97,0,109.8,13.52,4.22,1.5
"2009-10-05 00:43:30",1299253,8.42,40.78,3.506,1.002,9.27,101.6268,3.45,4.742,97.1,0,109.8,13.52,4.21,2.8
"2009-10-05 00:44:00",1299254,7.582,36.84,4.162,1.278,8.59,101.6177,3.427,4.705,97,0,109.7,13.52,4.19,358.8
"2009-10-05 00:44:30",1299255,6.929,33.11,6.693,1.184,6.771,101.6064,3.398,4.595,96.9,0,109.7,13.52,4.16,355.1
"2009-10-05 00:45:00",1299256,5.582,27.75,3.464,0.714,4.803,101.5948,3.369,4.548,96.9,0,109.8,13.52,4.13,349.8
"2009-10-05 00:45:30",1299257,8.2,35.48,8.75,1.318,8.32,101.596,3.372,4.633,97,0,109.7,13.52,4.14,357.5
"2009-10-05 00:46:00",1299258,8.12,34.16,5.677,0.962,9.42,101.596,3.372,4.696,97,0,109.8,13.52,4.14,356.2
"2009-10-05 00:46:30",1299259,8.2,36.49,4.978,0.936,9.58,101.5951,3.37,4.713,97,0,109.7,13.52,4.13,358.5
"2009-10-05 00:47:00",1299260,7.731,38.98,4.558,0.93,9.23,101.5957,3.371,4.701,97.1,0,109.8,13.52,4.13,1.0
"2009-10-05 00:47:30",1299261,7.81,38.42,4.894,1.061,8.14,101.5951,3.37,4.652,97,0,109.7,13.52,4.13,0.4
"2009-10-05 00:48:00",1299262,7.755,36.88,6.987,1.474,7.01,101.5948,3.369,4.563,96.9,0,109.8,13.51,4.13,358.9
"2009-10-05 00:48:30",1299263,6.606,32.6,5.671,0.866,5.843,101.596,3.372,4.537,96.9,0,109.8,13.51,4.14,354.6
"2009-10-05 00:49:00",1299264,8.48,42.49,5.248,0.93,9.32,101.5971,3.375,4.686,97,0,109.8,13.52,4.14,4.5
"2009-10-05 00:49:30",1299265,7.593,40.6,3.836,0.998,9.23,101.5974,3.375,4.736,97.1,0,109.8,13.51,4.14,2.6
"2009-10-05 00:50:00",1299266,8.39,42.14,4.383,1.07,9.18,101.5954,3.37,4.726,97.1,0,109.8,13.51,4.13,4.1
"2009-10-05 00:50:30",1299267,8.74,39.69,4.126,0.888,8.9,101.5951,3.37,4.715,97.1,0,109.8,13.51,4.13,1.7
"2009-10-05 00:51:00",1299268,7.909,35.08,6.475,1.266,7.877,101.5957,3.371,4.695,97.1,0,109.8,13.51,4.13,357.1
"2009-10-05 00:51:30",1299269,7.259,35.93,7.968,1.583,6.815,101.5963,3.372,4.555,96.9,0,109.7,13.51,4.14,357.9
"2009-10-05 00:52:00",1299270,6.086,33.97,7.698,1.399,5.797,101.5957,3.371,4.518,96.9,0,109.8,13.51,4.13,356.0
"2009-10-05 00:52:30",1299271,7.371,38.73,5.921,1.31,8.23,101.596,3.372,4.697,97.1,0,109.8,13.51,4.14,0.7
"2009-10-05 00:53:00",1299272,7.892,38.55,4.655,0.744,9.43,101.5974,3.375,4.688,97.1,0,109.8,13.52,4.14,0.5
"2009-10-05 00:53:30",1299273,7.402,36.91,4.753,1.068,9,101.5986,3.378,4.663,97.1,0,109.8,13.52,4.14,358.9
"2009-10-05 00:54:00",1299274,7.554,31.22,5.722,1.162,7.998,101.5971,3.375,4.673,97.1,0,109.8,13.52,4.14,353.2
"2009-10-05 00:54:30",1299275,7.188,28.7,5.511,1.3,7.53,101.5957,3.371,4.662,97,0,109.8,13.52,4.13,350.7
"2009-10-05 00:55:00",1299276,5.904,31.78,8.54,1.193,6.74,101.5971,3.375,4.608,97,0,109.8,13.52,4.14,353.8
"2009-10-05 00:55:30",1299277,7.475,32.56,6.3,1.062,7.995,101.5989,3.379,4.646,97,0,109.8,13.52,4.14,354.6
"2009-10-05 00:56:00",1299278,6.864,36.67,7.012,1.262,8.14,101.6017,3.386,4.64,97,0,109.7,13.52,4.15,358.7
"2009-10-05 00:56:30",1299279,6.668,30.29,5.657,1.28,8.41,101.5991,3.38,4.659,97.1,0,109.7,13.52,4.14,352.3
"2009-10-05 00:57:00",1299280,7.245,31.24,6.558,1.135,8.23,101.5989,3.379,4.645,97.1,0,109.7,13.52,4.14,353.2
"2009-10-05 00:57:30",1299281,6.768,35.31,5.774,1.23,8.25,101.5983,3.378,4.621,97,0,109.8,13.52,4.14,357.3
"2009-10-05 00:58:00",1299282,6.158,27.04,7.466,1.323,7.475,101.5991,3.38,4.57,97,0,109.7,13.52,4.14,349.0
"2009-10-05 00:58:30",1299283,6.745,25.65,6.479,1.17,7.613,101.5977,3.376,4.628,97.1,0,109.8,13.52,4.14,347.6
"2009-10-05 00:59:00",1299284,6.158,23.51,7.297,1.47,7.191,101.5974,3.375,4.579,97,0,109.8,13.52,4.14,345.5
"2009-10-05 00:59:30",1299285,7.135,28.92,5.083,1.218,8.12,101.5989,3.379,4.654,97.1,0,109.7,13.52,4.14,350.9
"2009-10-05 01:00:00",1299286,7.65,29.38,5.252,1.189,8.27,101.5994,3.381,4.641,97.1,0,109.8,13.52,4.14,351.4
"2009-10-05 01:00:30",1299287,8.62,31.7,4.023,0.729,9.09,101.5986,3.378,4.734,97.2,0,109.8,13.52,4.14,353.7
"2009-10-05 01:01:00",1299288,8.39,31.36,4.199,0.981,9,101.6017,3.386,4.713,97.2,0,109.7,13.52,4.15,353.4
"2009-10-05 01:01:30",1299289,7.929,30.28,5.437,0.831,8.49,101.6032,3.39,4.647,97.1,0,109.8,13.52,4.15,352.3
"2009-10-05 01:02:00",1299290,6.785,28.81,5.649,1.328,6.697,101.6012,3.385,4.661,97.1,0,109.8,13.52,4.15,350.8
"2009-10-05 01:02:30",1299291,6.577,29.28,6.909,0.984,6.202,101.6014,3.386,4.593,97.1,0,109.8,13.52,4.15,351.3
"2009-10-05 01:03:00",1299292,7.408,28.26,5.561,1.205,7.929,101.6017,3.386,4.631,97.1,0,109.8,13.52,4.15,350.3
"2009-10-05 01:03:30",1299293,7.662,31.44,5.103,1.163,9,101.6029,3.389,4.697,97.1,0,109.8,13.52,4.15,353.4
"2009-10-05 01:04:00",1299294,7.807,31.25,5.784,1.012,8.7,101.6003,3.383,4.687,97.1,0,109.8,13.52,4.15,353.2
"2009-10-05 01:04:30",1299295,7.914,33.73,4.34,0.932,8.51,101.593,3.364,4.672,97.1,0,109.8,13.52,4.13,355.7
"2009-10-05 01:05:00",1299296,7.449,33.73,5.29,0.878,8.63,101.5868,3.348,4.667,97.1,0,109.7,13.52,4.11,355.7
"2009-10-05 01:05:30",1299297,7.422,31.47,4.164,0.801,8.51,101.5814,3.335,4.691,97.2,0,109.8,13.52,4.10,353.5
"2009-10-05 01:06:00",1299298,6.976,30.86,6.311,0.992,7.681,101.5843,3.342,4.631,97.1,0,109.8,13.52,4.11,352.9
"2009-10-05 01:06:30",1299299,5.706,22.81,3.496,0.655,4.364,101.5794,3.33,4.477,96.9,0,109.7,13.52,4.09,344.8
"2009-10-05 01:07:00",1299300,5.765,24.04,5.012,1.003,5.594,101.5732,3.314,4.46,96.9,0,109.7,13.52,4.08,346.0
"2009-10-05 01:07:30",1299301,7.069,29.48,5.747,1.267,8.1,101.5732,3.314,4.613,97.1,0,109.8,13.52,4.08,351.5
"2009-10-05 01:08:00",1299302,7.843,31.7,5.42,0.886,9.04,101.5732,3.314,4.642,97.1,0,109.8,13.52,4.08,353.7
"2009-10-05 01:08:30",1299303,7.218,36.88,4.49,0.704,9.13,101.5738,3.315,4.656,97.1,0,109.7,13.52,4.08,358.9
"2009-10-05 01:09:00",1299304,7.755,33.72,4.775,1.078,9.03,101.5712,3.309,4.675,97.1,0,109.7,13.52,4.07,355.7
"2009-10-05 01:09:30",1299305,7.45,35.78,4.581,1.186,8.56,101.5755,3.32,4.674,97.2,0,109.8,13.52,4.08,357.8
"2009-10-05 01:10:00",1299306,5.259,25.88,4.151,1.088,5.294,101.5712,3.309,4.484,97,0,109.7,13.52,4.07,347.9
"2009-10-05 01:10:30",1299307,5.387,27.34,3.753,1.4,5.26,101.5747,3.317,4.44,96.9,0,109.8,13.52,4.08,349.3
"2009-10-05 01:11:00",1299308,7.072,30.37,5.596,1.24,8.08,101.5766,3.322,4.528,97,0,109.8,13.53,4.09,352.4
"2009-10-05 01:11:30",1299309,7.285,32.63,5.584,0.604,9.15,101.5783,3.327,4.621,97.1,0,109.7,13.53,4.09,354.6
"2009-10-05 01:12:00",1299310,7.386,34.24,5.18,0.929,9.16,101.5835,3.34,4.684,97.2,0,109.8,13.53,4.10,356.2
"2009-10-05 01:12:30",1299311,7.549,33.17,4.695,0.991,8.82,101.5846,3.343,4.676,97.2,0,109.8,13.53,4.11,355.2
"2009-10-05 01:13:00",1299312,7.605,29.23,5.889,1.247,7.799,101.584,3.341,4.604,97.1,0,109.7,13.52,4.10,351.2
"2009-10-05 01:13:30",1299313,6.179,23.18,5.966,1.036,5.924,101.5823,3.337,4.428,96.9,0,109.8,13.52,4.10,345.2
"2009-10-05 01:14:00",1299314,6.947,28.25,6.592,1.357,7.077,101.5812,3.334,4.59,97.1,0,109.8,13.53,4.10,350.2
"2009-10-05 01:14:30",1299315,6.949,26.76,7.206,1.212,6.654,101.5798,3.33,4.58,97.1,0,109.7,13.53,4.09,348.8
"2009-10-05 01:15:00",1299316,7.515,35.83,2.566,0.912,8.8,101.577,3.323,4.688,97.2,0,109.8,13.53,4.09,357.8
"2009-10-05 01:15:30",1299317,7.79,30.43,4.314,0.589,9.21,101.5753,3.319,4.695,97.2,0,109.7,13.52,4.08,352.4
"2009-10-05 01:16:00",1299318,7.344,27.73,5.646,1.185,7.865,101.5756,3.32,4.6,97.1,0,109.7,13.53,4.08,349.7
"2009-10-05 01:16:30",1299319,7.626,29.64,6.452,1.112,7.412,101.5756,3.32,4.586,97.1,0,109.7,13.53,4.08,351.6
"2009-10-05 01:17:00",1299320,7.224,25.46,6.685,1.379,6.214,101.5753,3.319,4.501,97,0,109.7,13.53,4.08,347.5
"2009-10-05 01:17:30",1299321,7.43,29.06,5.751,1.298,7.534,101.5761,3.321,4.611,97.1,0,109.7,13.53,4.08,351.1
"2009-10-05 01:18:00",1299322,7.861,32.67,4.565,0.584,8.89,101.5784,3.327,4.605,97.2,0,109.7,13.53,4.09,354.7
"2009-10-05 01:18:30",1299323,7.272,30.32,5.485,0.912,8.61,101.5773,3.324,4.583,97.1,0,109.8,13.53,4.09,352.3
"2009-10-05 01:19:00",1299324,6.89,27.38,7.094,1.418,7.42,101.5784,3.327,4.589,97.1,0,109.7,13.53,4.09,349.4
"2009-10-05 01:19:30",1299325,7.338,29.61,5.869,1.202,7.869,101.5804,3.332,4.63,97.2,0,109.7,13.53,4.10,351.6
"2009-10-05 01:20:00",1299326,7.194,31.1,5.598,1.041,7.996,101.5799,3.331,4.585,97.1,0,109.7,13.53,4.09,353.1
"2009-10-05 01:20:30",1299327,6.651,28.54,5.882,1.242,7.323,101.577,3.323,4.517,97.1,0,109.7,13.53,4.09,350.5
"2009-10-05 01:21:00",1299328,6.874,33.14,5.789,1.008,8.18,101.5804,3.332,4.585,97.1,0,109.7,13.52,4.10,355.1
"2009-10-05 01:21:30",1299329,6.529,30.52,6.187,1.28,7.067,101.5787,3.328,4.538,97.1,0,109.7,13.52,4.09,352.5
"2009-10-05 01:22:00",1299330,7.424,29.67,6.406,1.084,7.728,101.5796,3.33,4.549,97.1,0,109.7,13.52,4.09,351.7
"2009-10-05 01:22:30",1299331,7.791,30.86,5.49,0.909,8.49,101.5818,3.336,4.625,97.2,0,109.7,13.52,4.10,352.9
"2009-10-05 01:23:00",1299332,7.47,29.46,5.41,0.97,7.991,101.5827,3.338,4.6,97.2,0,109.7,13.52,4.10,351.5
"2009-10-05 01:23:30",1299333,7.473,26.18,5.931,1.1,7.756,101.5821,3.336,4.608,97.2,0,109.7,13.52,4.10,348.2
"2009-10-05 01:24:00",1299334,7.397,29.5,6.495,1.212,7.745,101.5787,3.328,4.612,97.2,0,109.8,13.52,4.09,351.5
"2009-10-05 01:24:30",1299335,7.491,28.37,5.705,1.01,8.15,101.5824,3.337,4.614,97.2,0,109.8,13.52,4.10,350.4
"2009-10-05 01:25:00",1299336,7.952,28.66,5.251,1.324,7.972,101.5824,3.337,4.556,97.1,0,109.8,13.52,4.10,350.7
"2009-10-05 01:25:30",1299337,7.768,32.58,5.675,1.159,8.55,101.5822,3.336,4.664,97.2,0,109.7,13.52,4.10,354.6
"2009-10-05 01:26:00",1299338,8.31,32.27,4.622,0.635,9.17,101.5822,3.336,4.631,97.2,0,109.7,13.53,4.10,354.3
"2009-10-05 01:26:30",1299339,7.56,28.99,6.141,1.199,7.52,101.5824,3.337,4.603,97.2,0,109.7,13.53,4.10,351.0
"2009-10-05 01:27:00",1299340,8.41,32.48,2.294,0.771,8.72,101.5842,3.342,4.623,97.2,0,109.7,13.53,4.11,354.5
"2009-10-05 01:27:30",1299341,6.725,24.32,5.635,1.121,6.209,101.5822,3.336,4.564,97.1,0,109.7,13.53,4.10,346.3
"2009-10-05 01:28:00",1299342,7.359,30.91,5.074,1.41,7.891,101.5805,3.332,4.511,97.1,0,109.7,13.53,4.10,352.9
"2009-10-05 01:28:30",1299343,7.85,30.73,4.581,1.11,8.61,101.5779,3.326,4.595,97.2,0,109.7,13.53,4.09,352.7
"2009-10-05 01:29:00",1299344,8.62,31.53,4.371,0.581,9.26,101.5737,3.315,4.633,97.2,0,109.7,13.53,4.08,353.5
"2009-10-05 01:29:30",1299345,7.941,30.16,4.676,0.882,8.69,101.57,3.305,4.617,97.2,0,109.7,13.53,4.07,352.2
"2009-10-05 01:30:00",1299346,8.1,31.12,3.437,0.795,8.78,101.5655,3.294,4.614,97.2,0,109.7,13.53,4.06,353.1
"2009-10-05 01:30:30",1299347,7.027,27.28,6.719,1.188,6.993,101.5666,3.297,4.538,97.1,0,109.7,13.53,4.06,349.3
"2009-10-05 01:31:00",1299348,7.306,30.34,6.587,1.108,7.789,101.559,3.277,4.459,97,0,109.7,13.53,4.04,352.3
"2009-10-05 01:31:30",1299349,7.775,27.24,5.213,1.087,7.866,101.5627,3.287,4.453,97.1,0,109.7,13.53,4.05,349.2
"2009-10-05 01:32:00",1299350,8.32,30.35,4.545,0.929,8.64,101.5576,3.274,4.602,97.2,0,109.7,13.53,4.04,352.4
"2009-10-05 01:32:30",1299351,8.02,30.68,5.088,0.876,9.06,101.5559,3.269,4.58,97.2,0,109.7,13.53,4.03,352.7
"2009-10-05 01:33:00",1299352,8.18,32.4,3.107,0.807,9.24,101.5559,3.269,4.614,97.3,0,109.7,13.53,4.03,354.4
"2009-10-05 01:33:30",1299353,7.793,30.68,2.443,0.784,8.73,101.5525,3.261,4.604,97.2,0,109.7,13.53,4.02,352.7
"2009-10-05 01:34:00",1299354,8.01,30.05,4.021,0.682,8.77,101.5514,3.258,4.605,97.2,0,109.7,13.53,4.02,352.0
"2009-10-05 01:34:30",1299355,8.02,29.68,3.524,0.826,8.52,101.5517,3.259,4.557,97.2,0,109.7,13.53,4.02,351.7
"2009-10-05 01:35:00",1299356,5.509,18.14,3.627,0.682,4.532,101.5531,3.262,4.42,97.1,0,109.7,13.54,4.03,340.1
"2009-10-05 01:35:30",1299357,6.847,26.77,7.393,1.154,6.435,101.5517,3.259,4.441,97.1,0,109.7,13.53,4.02,348.8
"2009-10-05 01:36:00",1299358,7.158,27.69,5.709,1.147,7.644,101.5517,3.259,4.517,97.1,0,109.7,13.53,4.02,349.7
"2009-10-05 01:36:30",1299359,7.509,29.32,3.994,0.643,9.2,101.5528,3.262,4.619,97.2,0,109.7,13.53,4.02,351.3
"2009-10-05 01:37:00",1299360,7.392,27.46,5.173,1.017,9.23,101.5531,3.262,4.59,97.3,0,109.7,13.53,4.03,349.5
"2009-10-05 01:37:30",1299361,7.579,30.47,3.241,0.792,9,101.5534,3.263,4.611,97.2,0,109.7,13.52,4.03,352.5
"2009-10-05 01:38:00",1299362,7.993,33.54,4.141,0.834,8.48,101.5522,3.26,4.6,97.2,0,109.7,13.52,4.02,355.5
"2009-10-05 01:38:30",1299363,5.204,19.37,6.1,1.472,4.996,101.5531,3.262,4.332,97,0,109.7,13.52,4.03,341.4
"2009-10-05 01:39:00",1299364,7.145,32.16,6.338,1.146,7.669,101.5517,3.259,4.466,97.1,0,109.7,13.52,4.02,354.2
"2009-10-05 01:39:30",1299365,7.223,28.94,6.618,1.233,7.523,101.5525,3.261,4.479,97.1,0,109.7,13.52,4.02,350.9
"2009-10-05 01:40:00",1299366,8.21,32.32,3.928,0.552,9.35,101.5534,3.263,4.605,97.2,0,109.7,13.52,4.03,354.3
"2009-10-05 01:40:30",1299367,8.16,32.68,4.369,0.837,9.42,101.5531,3.262,4.585,97.2,0,109.7,13.52,4.03,354.7
"2009-10-05 01:41:00",1299368,7.827,30.26,4.8,0.815,9.22,101.5531,3.262,4.6,97.3,0,109.7,13.52,4.03,352.3
"2009-10-05 01:41:30",1299369,7.26,30.27,6.302,0.925,7.942,101.5522,3.26,4.537,97.2,0,109.7,13.52,4.02,352.3
"2009-10-05 01:42:00",1299370,6.334,28.16,6.182,1.173,6.12,101.5522,3.26,4.355,97,0,109.7,13.52,4.02,350.2
"2009-10-05 01:42:30",1299371,5.906,23.59,5.383,0.941,5.729,101.5534,3.263,4.436,97.1,0,109.7,13.53,4.03,345.6
"2009-10-05 01:43:00",1299372,7.352,29.8,6.32,1.028,7.687,101.5545,3.266,4.552,97.2,0,109.7,13.53,4.03,351.8
"2009-10-05 01:43:30",1299373,7.898,31.48,4.689,0.583,9.3,101.5528,3.262,4.62,97.2,0,109.7,13.53,4.02,353.5
"2009-10-05 01:44:00",1299374,7.853,30.92,3.76,0.572,9.39,101.5573,3.273,4.602,97.3,0,109.7,13.53,4.04,352.9
"2009-10-05 01:44:30",1299375,7.433,30.42,4.616,0.991,8.81,101.5588,3.277,4.598,97.2,0,109.7,13.53,4.04,352.4
"2009-10-05 01:45:00",1299376,7.29,28.99,5.484,1.087,8.2,101.5607,3.282,4.543,97.2,0,109.7,13.53,4.05,351.0
"2009-10-05 01:45:30",1299377,5.693,22.51,4.519,0.834,5.634,101.5661,3.296,4.437,97.1,0,109.7,13.53,4.06,344.5
"2009-10-05 01:46:00",1299378,7.227,28.33,5.743,0.956,8.36,101.5706,3.307,4.525,97.2,0,109.7,13.53,4.07,350.3
"2009-10-05 01:46:30",1299379,6.973,29.09,7.093,1.283,8.25,101.5754,3.319,4.583,97.3,0,109.7,13.53,4.08,351.1
"2009-10-05 01:47:00",1299380,7.872,32.83,4.581,0.613,9.28,101.5808,3.333,4.573,97.2,0,109.7,13.53,4.10,354.8
"2009-10-05 01:47:30",1299381,6.792,29.25,6.37,1.134,7.624,101.5848,3.343,4.556,97.2,0,109.7,13.53,4.11,351.2
"2009-10-05 01:48:00",1299382,6.942,31.93,5.851,1.217,8.15,101.5868,3.348,4.627,97.3,0,109.7,13.53,4.11,353.9
"2009-10-05 01:48:30",1299383,6.961,32.59,6.693,1.039,8.24,101.5879,3.351,4.549,97.2,0,109.7,13.53,4.11,354.6
"2009-10-05 01:49:00",1299384,6.503,30.58,6.642,1.221,7.55,101.5873,3.35,4.511,97.2,0,109.7,13.53,4.11,352.6
"2009-10-05 01:49:30",1299385,7.526,30.79,5.239,0.987,8.24,101.5879,3.351,4.542,97.2,0,109.7,13.53,4.11,352.8
"2009-10-05 01:50:00",1299386,7.384,31.55,5.288,1.123,8.35,101.5888,3.353,4.556,97.3,0,109.7,13.53,4.12,353.5